Location: Unspecified
(50.1700°N, 6.8600°E)
Time: 04:19:28
(UTC+00:00)

ASTEX 1 - Pass Details

Date: 24 January 2019
Orbit: 719 x 745 km, 92.7° (Epoch: 22 February)

Event Time Altitude Azimuth Distance (km) Brightness Sun altitude
Rises 06:38:11 0° 357° (N) 3,178 6.4 -6.5°
Reaches altitude 10° 06:40:46 10° 346° (NNW) 2,246 5.6 -6.1°
Maximum altitude 06:44:55 27° 289° (WNW) 1,375 4.3 -5.5°
Drops below altitude 10° 06:49:01 10° 232° (SW) 2,219 5.6 -4.9°
Sets 06:51:33 0° 221° (SW) 3,131 6.5 -4.5°
